[RG] Testing Wed 23/11

Status
Not open for further replies.

richa2002

Established Member
Joined
8 Jun 2005
Messages
2,153
Train 1Z14 runs WO from 23/11/05 to
Train category DT Loco-Hauled 242 miles
Train service code 56760017 Catering N
Uid A10087 Sector 10 Sub-sector 01 Set up

Location Booked C Pw Miles Tlod
50422 ILFORDEMD 05:53
52741 LIVERPLST 06:12 06:31 0 10
47221 CAMBRIDGE 08:13 09:00 0 66
46259 LITTLEPRT 09:25 09:46 0 86
46220 KINGSLYNN 10:12 10:23 0 107
46222 K LYNNLPS 10:25 10:32 0
46222 KLYNNTC 10:36 10:43 0
46239 MIDDLTWRS 11:03 11:10 0 110
46222 K LYNNLPS 11:30 12:19 0 113
46259 LITTLEPRT 12:45 12:57 0 133
46272 ELY NTHJN 13:04 13:06 0 137
46212 MARCH DYD 13:28 13:51 0 151
57403 DERBY 15:49 16:06 0 240
57421 DERBY RTC 16:14 3 242

Train 2Z08 runs WO from 23/11/05 to 23/11/05
Train category DT Multiple-Unit 159 miles Applic
Train service code 56760017 Catering N/A
Uid K91046 Sector 10 Sub-sector 01 Set up by TSDB

Location Booked C Pw Miles Tlod Ctg Pfm E
23418 DONCWSTYD 07:29
18058 WAKEFLD K 08:00 08:02 3 20
24385 BARNSLEY 08:24 08:26 3 31
25629 MILLRACEJ 08:49 09:00 3 46
25389 PENISTONE 09:35 09:45 3 68
18474 HUDDFIELD 10:07 10:07 3 82
18641 BRADFINTC 10:38 11:09 0 101
18474 HUDDFIELD 11:42 11:53 3 120
25389 PENISTONE 12:15 12:20 3 134
24385 BARNSLEY 12:38 12:44 3 141
16912 CASTLFORD 13:10 3 159

Train 2Z08 runs WO from 23/11/05 to 23
Train category DT Multiple-Unit 70 miles
Train service code 56760017 Catering N/A
Uid K91086 Sector 10 Sub-sector 01 Set up by

Location Booked C Pw Miles Tlod Ct
16912 CASTLFORD 13:15
18431 DEWSBY EJ 13:37 13:43 3 13
16912 CASTLFORD 14:41 14:45 3 26
18058 WAKEFLD K 14:54 15:07 3 33
18067 WAKEFLD W 15:10 15:14 3 34
18058 WAKEFLD K 15:16 15:16 3 35
18303 MOORTHPLP 15:34 15:54 3 45
18074 HEMSD&UPL 16:01 16:07 0 48
18053 OAKENSHWJ 16:16 16:22 3 53
18074 HEMSD&UPL 16:38 16:46 0 58
23418 DONCWSTYD 17:08 3 70

Train 5Z20 runs WO from 23/11/05 to
Train category DD Loco-Hauled 293 mile
Train service code 56760020 Catering
Uid B06272 Sector 10 Sub-sector 01 Set up

Location Booked C Pw Miles Tlod
57421 DERBY RTC 07:48
57413 WAY&WKS S PASS 07:51 2 1
57403 DERBY 07:53 07:55 0 2
57110 AMBRGTEJN PASS 08:09 2 12
56102 CLAYXSTHJ PASS 08:19 2 22
27263 CHESTRFLD PASS 08:24 2 26
25705 DORESTNJN PASS 08:38 2 34
25701 SHEFFIELD 08:44 09:04 0 38
25635 NUNN MLJN PASS 09:06 2 38
25319 WINCOBANK PASS 09:09 2 41
25016 HOLMESJN PASS 09:11 2 43
24705 RHAMMASJN PASS 09:12 2 44
24701 ALDWARKEJ PASS 09:15 2 46
24108 SWINTON PASS 09:17 2 48
24314 MEXBORO PASS 09:19 2 49
24219 HEXTHPEJN PASS 09:24 2 54
23421 DONCASTER PASS 09:33 2 56
23221 SHFTHMEJN PASS 09:36 2 60
16480 TEMPLHJ PASS 09:44 2 69
16470 HMBLTN NJ PASS 09:48 2 74
16460 COLTONJN PASS 10:04 2 82
16416 YORK PASS 10:14 2 88
16421 SKELTON J PASS 10:16 2 90
16005 TOLLERTON PASS 10:22 2 98
16001 THIRSK PASS 10:32 2 110
15883 NOALLERTN PASS 10:42 2 118
15866 DARLINGTN PASS 10:54 2 132
15120 FHILSTHJN PASS 11:04 2 144
13800 TURSDLEJN PASS 11:06 2 147
13702 DURHAM PASS 11:12 2 154
13554 BIRTLEY PASS 11:23 2 162
12932 KEBG JNS PASS 11:26 2 166
12931 NCASTLCEN 11:32 11:52 0 167
12710 HEATONSJN PASS 12:09 2 169
12132 MORPETH PASS 12:26 2 184
12112 ALNMOUTH PASS 12:41 2 202
12106 BELFORD PASS 12:55 2 219
12001 BERWICK PASS 13:08 2 234
04838 MARSHALLM PASS 13:11 2 236
04837 RESTN GSP PASS 13:16 2 244
04834 GRANTSHSE PASS 13:20 2 250
04827 DUNBAR PASS 13:33 2 262
04821 DREM PASS 13:39 2 273
04730 MNKTNHALJ PASS 13:49 2 285
04641 PBELLO JN PASS 13:58 2 288
04303 EDINBURGH 14:02 14:10 0 291
04521 CRAIGNTNY 14:20 3 293

Train 4Z08 runs WO from 23/11/05 to
Train category DT Loco-Hauled 142 mile
Train service code 56760014 Catering
Uid S85172 Sector 10 Sub-sector 01 Set up

Location Booked C Pw Miles Tlod
09161 CARLISLE 15:47
11530 CRNFTHUPL 16:54 17:22 0 63
11720 LANCASTER 17:28 17:39 0 69
42141 CREWE SYD 19:09 3 142

Train 4Z10 runs WO from 23/11/05 to 23
Train category DT Loco-Hauled 392 miles
Train service code 56760014 Catering N/A
Uid A10094 Sector 10 Sub-sector 01 Set up by

Location Booked C Pw Miles Tlod Ct
50422 ILFORDEMD 18:19
44365 CLAYPOLE 21:43 21:53 0 122
44304 NEWARKNGT 22:07 22:09 0 127
23498 CARLTONLP 22:21 22:36 0 133
23491 RETFDECML 23:00 23:45 0 145
16416 YORK 01:01 01:31 0 193
23421 DONCASTER 02:10 02:18 3 225
23491 RETFDECML 02:54 03:01 0 241
50424 ILFORD SJ 06:42 06:43 3 390
50422 ILFORDEMD 06:52 3 392
 
Status
Not open for further replies.

Top